Asheville, NC

9:19 PM EDT on May 25, 2017 (GMT -0400)
Asheville Regional

Weather History for KAVL - June, 2007

Change the Weather History Date:

Saturday, June 9, 2007

  Actual Average Record
Temperature  
Mean Temperature 72 °F 69 °F  
Max Temperature 83 °F 80 °F 93 °F (2008)
Min Temperature 61 °F 58 °F 46 °F (1912)
Degree Days  
Heating Degree Days 0 1  
Month to date heating degree days 0 9  
Since 1 June heating degree days 9  
Since 1 July heating degree days 4022 4190  
Cooling Degree Days 7 5  
Month to date cooling degree days 61 39  
Year to date cooling degree days 104 97  
Since 1 June cooling degree days 39  
Growing Degree Days 22 (Base 50)    
Moisture  
Dew Point 58 °F    
Average Humidity 64    
Maximum Humidity 93    
Minimum Humidity 34    
Precipitation  
Precipitation 0.00 in 0.15 in 1.48 in (2013)
Month to date precipitation 0.16 1.32  
Year to date precipitation 11.98 19.57  
Snow  
Snow 0.00 in 0.00 in 0.00 in ()
Month to date snowfall 0.0 0.0  
Since 1 June snowfall 0.0  
Since 1 July snowfall 3.2 9.9  
Snow Depth -    
Sea Level Pressure  
Sea Level Pressure 29.99 in    
Wind  
Wind Speed 11 mph (NNW)    
Max Wind Speed 24 mph    
Max Gust Speed 29 mph    
Visibility 10 miles    
Events      
T = Trace of Precipitation, MM = Missing Value Source: NWS Daily Summary

Daily Weather History Graph

Daily Weather History Graph

Search for Another Location

Airport or City:

Trip Planner

Search our weather history database for the weather conditions in past years. The results will help you decide how hot, cold, wet, or windy it might be!

Date:

Astronomy

Jun. 09, 2007 Rise Set
Actual Time 6:14 AM EDT 8:44 PM EDT
Civil Twilight 5:44 AM EDT 9:14 PM EDT
Nautical Twilight 5:08 AM EDT 9:50 PM EDT
Astronomical Twilight 4:27 AM EDT 10:31 PM EDT
Moon 2:10 AM EDT (6/9) 2:46 PM EDT (6/9)
Length of Visible Light 15h 29m
Length of Day
14h 29m
Last Quarter, 37% of the Moon is Illuminated
Jun 9
Last Quarter
Jun 14
New
Jun 22
First Quarter
Jun 30
Full
Jul 7
Last Quarter

Hourly Weather History & Observations

Time (EDT) Temp. Heat Index Dew Point Humidity Pressure Visibility Wind Dir Wind Speed Gust Speed Precip Events Conditions
12:54 AM 66.9 °F - 61.0 °F 81% 30.02 in 10.0 mi NNW 8.1 mph - N/A   Clear
1:54 AM 66.9 °F - 60.1 °F 79% 30.03 in 10.0 mi North 5.8 mph - N/A   Clear
2:54 AM 66.0 °F - 60.1 °F 81% 30.03 in 10.0 mi NNW 10.4 mph - N/A   Clear
3:54 AM 64.0 °F - 60.1 °F 87% 30.01 in 10.0 mi North 8.1 mph - N/A   Clear
4:54 AM 64.0 °F - 60.1 °F 87% 30.00 in 10.0 mi NNW 5.8 mph - N/A   Clear
5:54 AM 62.1 °F - 59.0 °F 90% 30.01 in 10.0 mi NNW 9.2 mph - N/A   Clear
6:54 AM 62.1 °F - 60.1 °F 93% 30.04 in 10.0 mi NNW 9.2 mph - N/A   Clear
7:54 AM 64.9 °F - 60.1 °F 84% 30.04 in 10.0 mi North 8.1 mph - N/A   Clear
8:54 AM 68.0 °F - 60.1 °F 76% 30.04 in 10.0 mi North 10.4 mph - N/A   Clear
9:54 AM 72.0 °F - 60.1 °F 66% 30.02 in 10.0 mi North 9.2 mph - N/A   Clear
10:54 AM 75.0 °F - 61.0 °F 62% 30.02 in 10.0 mi NNW 11.5 mph - N/A   Clear
11:54 AM 79.0 °F - 60.1 °F 52% 30.01 in 10.0 mi North 11.5 mph - N/A   Clear
12:54 PM 81.0 °F 81.3 °F 59.0 °F 47% 29.99 in 10.0 mi North 12.7 mph - N/A   Clear
1:54 PM 80.1 °F 80.9 °F 60.1 °F 50% 29.99 in 10.0 mi North 17.3 mph 25.3 mph N/A   Clear
2:54 PM 82.0 °F 81.6 °F 55.9 °F 41% 29.97 in 10.0 mi NNW 23.0 mph 27.6 mph N/A   Clear
3:54 PM 82.0 °F 81.2 °F 53.1 °F 37% 29.96 in 10.0 mi NNW 23.0 mph 28.8 mph N/A   Clear
4:54 PM 82.0 °F 81.2 °F 53.1 °F 37% 29.95 in 10.0 mi NNW 19.6 mph 25.3 mph N/A   Clear
5:54 PM 82.0 °F - 51.1 °F 34% 29.95 in 10.0 mi North 9.2 mph 19.6 mph N/A   Clear
6:54 PM 81.0 °F 80.5 °F 54.0 °F 39% 29.94 in 10.0 mi NNW 12.7 mph - N/A   Clear
7:54 PM 78.1 °F - 55.0 °F 45% 29.94 in 10.0 mi NNW 11.5 mph - N/A   Clear
8:54 PM 75.0 °F - 55.9 °F 51% 29.95 in 10.0 mi North 4.6 mph - N/A   Clear
9:54 PM 72.0 °F - 57.0 °F 59% 29.96 in 10.0 mi Variable 4.6 mph - N/A   Clear
10:54 PM 70.0 °F - 57.0 °F 63% 29.97 in 10.0 mi North 4.6 mph - N/A   Clear
11:54 PM 68.0 °F - 57.0 °F 68% 29.96 in 10.0 mi North 4.6 mph - N/A   Clear